Simultaneous Nadir Overpasses (SNOs) Predictions

Prediction of SNOs between AQUA and METOP-C Satellite Orbit:

Table of predicted SNOs for the next 14.0 days since TLE Epoch: 12/22/2018
Index Date (AQUA) Time (AQUA) Lat,Lon (AQUA) SZA (AQUA ) Date (METOP-C) Time (METOP-C) Lat,Lon (METOP-C) SZA (METOP-C ) Distance(km) Time Diff (sec)
1 12/22/2018 23:45:03 73.27, 179.09 96.65 12/22/2018 23:43:56 73.20, 176.77 96.65 74.72 67
2 12/23/2018 00:34:39 -73.83, -14.47 82.76 12/23/2018 00:34:25 -73.83, -14.45 82.76 0.49 14
3 12/23/2018 01:24:08 73.89, 153.03 97.31 12/23/2018 01:25:04 73.88, 153.00 97.29 1.64 56
4 12/25/2018 19:19:24 73.53,-115.02 96.88 12/25/2018 19:18:14 73.47,-116.22 96.86 38.49 70
5 12/25/2018 20:08:55 -73.83, 51.97 82.81 12/25/2018 20:08:48 -73.86, 52.01 82.79 2.93 7
6 12/25/2018 20:58:24 73.89,-140.53 97.26 12/25/2018 20:59:27 73.90,-140.55 97.26 0.97 63
7 12/28/2018 14:53:43 73.74, -49.04 97.00 12/28/2018 14:52:31 73.73, -49.19 97.00 4.79 72
8 12/28/2018 15:43:10 -73.84, 118.40 82.91 12/28/2018 15:43:11 -73.83, 118.36 82.92 1.33 1
9 12/28/2018 16:32:39 73.90, -74.10 97.15 12/28/2018 16:33:49 73.91, -74.10 97.16 1.84 70
10 12/31/2018 10:28:00 73.81, 17.26 96.89 12/31/2018 10:26:53 73.80, 17.37 96.89 3.63 67
11 12/31/2018 11:17:26 -73.84,-175.18 83.07 12/31/2018 11:17:34 -73.85,-175.17 83.07 1.00 8
12 12/31/2018 12:06:58 74.06, -8.03 97.16 12/31/2018 12:08:09 74.08, -7.29 97.15 22.76 71
13 01/03/2019 06:02:15 73.77, 83.78 96.62 01/03/2019 06:01:17 73.76, 83.71 96.63 2.42 58
14 01/03/2019 06:51:42 -73.86,-108.77 83.29 01/03/2019 06:51:57 -73.88,-108.70 83.28 2.98 15




NCC Satellite Simultaneous Nadir Overpasses (SNOs) Prediction Service
